This demonstration page uses our WeatherBlox Daily Observations layout. Learn more.

41.55636, -103.73856

Hourly Observations for August 26, 2019

Temp ( °F °C ) Dew Point ( °F °C ) Humidity (%) Winds ( mph kmh ) Pressure ( in mb ) Visibility ( mi km ) Precip ( " mm )
12:58 am 00:58 Mostly Clear 65 18.4 56 13.4 73 73 N 14 22 29.68 1005 10 16.09344 0 0
1:58 am 01:58 Cloudy 59 14.9 56 13.2 90 90 N 22 35 29.77 1008 10 16.09344 0 0
2:58 am 02:58 Mostly Cloudy 57 14 54 12.2 89 89 N 16 26 29.8 1009 10 16.09344 0 0
3:58 am 03:58 Clear 55 13 53 11.6 91 91 N 17 28 29.8 1009 10 16.09344 0 0
4:58 am 04:58 Clear 55 12.5 52 11 91 91 N 9 15 29.85 1011 10 16.09344 0 0
5:58 am 05:58 Clear 53 11.6 51 10.5 93 93 N 10 17 29.88 1012 10 16.09344 0 0
6:58 am 06:58 Sunny 55 12.5 51 10.5 88 88 N 10 17 29.91 1013 10 16.09344 0 0
7:58 am 07:58 Sunny 58 14.7 52 10.9 78 78 NNW 16 26 29.91 1013 10 16.09344 0 0
8:58 am 08:58 Sunny 60 15.8 53 11.4 75 75 NNW 17 28 29.94 1014 10 16.09344 0 0
9:58 am 09:58 Partly Cloudy 61 16.2 52 10.9 71 71 NNW 14 22 29.97 1015 10 16.09344 0 0
10:58 am 10:58 Mostly Sunny 64 18 52 11.1 64 64 N 15 24 29.94 1014 10 16.09344 0 0
11:58 am 11:58 Sunny 67 19.3 51 10.4 57 57 N 15 24 29.94 1014 10 16.09344 0 0
12:58 pm 12:58 Sunny 69 20.5 49 9.5 49 49 N 16 26 29.91 1013 10 16.09344 0 0
1:58 pm 13:58 Sunny 70 21 48 9 46 46 N 14 22 29.94 1014 10 16.09344 0 0
2:58 pm 14:58 Sunny 70 20.9 48 9 47 47 NE 10 17 29.91 1013 10 16.09344 0 0
3:58 pm 15:58 Sunny 71 21.7 47 8.5 43 43 NNE 13 20 29.94 1014 10 16.09344 0 0
4:58 pm 16:58 Sunny 70 21.1 45 7.1 40 40 NNE 10 17 29.94 1014 10 16.09344 0 0
5:58 pm 17:58 Mostly Sunny 69 20.7 46 8 44 44 NNE 6 9 29.97 1015 10 16.09344 0 0
6:58 pm 18:58 Sunny 66 18.8 46 7.5 48 48 NE 7 11 30 1016 10 16.09344 0 0
7:58 pm 19:58 Clear 61 16.3 46 7.9 58 58 ENE 6 9 30.03 1017 10 16.09344 0 0
9:58 pm 21:58 Clear 57 13.8 46 7.7 67 67 ENE 8 13 30.06 1018 10 16.09344 0 0
10:58 pm 22:58 Clear 55 12.5 46 7.5 72 72 Calm 30.06 1018 10 16.09344 0 0
11:58 pm 23:58 Mostly Cloudy 53 11.8 47 8.4 80 80 Calm 30.06 1018 10 16.09344 0 0

Powered by AerisWeather